Weather observations for the past three days for
San Antonio Boerne Stage Field
Imperial (Metric)
Date Time (cdt) Wind (mph) Vis. (mi.) Weather Sky Cond. Temperature (ºF) Relative Humidity Wind Chill (°F) Heat Index (°F) Pressure Precipitation (in)
Air Dwpt 6 hour altimeter (in) sea level (mb) 1 hr 3 hr 6 hr
Max. Min.
13 14:55 Calm 10.00 Partly Cloudy SCT047 SCT095 89.6 68 49% 93 29.97 0.0
13 14:35 Calm 10.00 Partly Cloudy SCT095 89.6 68 49% 93 29.97 0.0
13 14:15 E 3 10.00 Fair CLR 89.6 68 49% 93 29.98 0.0
13 13:55 E 6 10.00 Partly Cloudy SCT100 87.8 68 52% 91 29.99 0.0
13 13:35 Calm 10.00 Partly Cloudy SCT090 86 69.8 59% 91 29.99 0.0
13 13:15 E 3 10.00 Mostly Cloudy SCT034 SCT070 BKN090 86 69.8 59% 91 30 0.0
13 12:55 SW 3 10.00 Partly Cloudy SCT034 SCT044 SCT060 86 69.8 59% 91 30.01 0.0
13 12:35 SW 7 10.00 Mostly Cloudy SCT034 SCT043 BKN055 84.2 69.8 62% 88 30.01 0.0
13 12:15 W 5 10.00 Mostly Cloudy BKN033 BKN042 BKN047 86 69.8 59% 91 30.01 0.0
13 11:55 Calm 10.00 Overcast SCT029 BKN050 OVC065 84.2 69.8 62% 88 30.01 0.0
13 11:35 S 5 10.00 Mostly Cloudy SCT038 BKN060 BKN075 82.4 71.6 70% 87 30.01 0.0
13 11:15 SE 6 10.00 Partly Cloudy SCT034 SCT060 82.4 69.8 66% 86 30.01 0.0
13 10:55 S 3 10.00 Mostly Cloudy SCT025 BKN060 80.6 69.8 70% 84 30.01 0.0
13 10:35 S 5 10.00 Mostly Cloudy SCT023 BKN050 80.6 69.8 70% 84 30.01 0.0
13 10:15 S 7 10.00 Mostly Cloudy SCT045 BKN050 80.6 71.6 74% 85 30.01 0.0
13 09:55 SE 7 10.00 Mostly Cloudy SCT019 SCT029 BKN060 78.8 71.6 79% 82 30.02 0.0
13 09:35 SW 3 10.00 Partly Cloudy SCT014 SCT021 SCT029 78.8 73.4 84% 82 30.01 0.0
13 09:15 Calm 10.00 Mostly Cloudy BKN012 BKN019 77 77 100% 78 30.01 0.0
13 08:55 Calm 10.00 Mostly Cloudy BKN012 BKN019 77 77 100% 78 30.01 0.0
13 08:35 S 3 10.00 Mostly Cloudy BKN010 BKN048 77 77 100% 78 30 0.0
13 08:15 Calm 10.00 Overcast OVC008 75.2 75.2 100% 73 30 0.0
13 07:55 Calm 10.00 Overcast BKN010 OVC050 75.2 75.2 100% 73 29.99 0.0
13 07:35 Calm 10.00 Mostly Cloudy SCT010 BKN050 BKN090 73.4 73.4 100% 29.99 0.0
13 07:15 Calm 10.00 Mostly Cloudy SCT008 SCT019 BKN050 73.4 73.4 100% 29.98 0.0
13 06:55 Calm 10.00 Overcast BKN010 BKN018 OVC050 73.4 73.4 100% 29.97 0.0
13 06:35 Calm 10.00 Overcast OVC010 73.4 73.4 100% 29.97 0.0
13 06:15 Calm 10.00 Overcast SCT010 BKN021 OVC055 73.4 73.4 100% 29.97 0.0
13 05:55 Calm 10.00 Overcast BKN013 BKN018 OVC047 73.4 73.4 100% 29.96 0.0
13 05:35 Calm 10.00 Overcast BKN011 BKN047 OVC060 71.6 71.6 100% 29.96 0.0
13 05:15 Calm 10.00 Overcast BKN009 BKN047 OVC060 71.6 71.6 100% 29.96 0.0
13 04:55 Calm 10.00 Overcast BKN009 OVC047 73.4 73.4 100% 29.95 0.0
13 04:35 Calm 10.00 Overcast BKN009 OVC047 73.4 73.4 100% 29.95 0.0
13 04:15 Calm 10.00 Mostly Cloudy SCT009 BKN047 BKN060 73.4 73.4 100% 29.94 0.0
13 03:55 Calm 10.00 Partly Cloudy SCT047 SCT060 71.6 71.6 100% 29.95 0.0
13 03:35 Calm 10.00 Partly Cloudy SCT010 SCT060 73.4 73.4 100% 29.95 0.0
13 03:15 Calm 10.00 Partly Cloudy SCT046 SCT060 73.4 73.4 100% 29.95 0.0
13 02:55 Calm 10.00 Mostly Cloudy BKN046 BKN060 BKN080 73.4 73.4 100% 29.95 0.0
13 02:35 Calm 10.00 Mostly Cloudy SCT046 SCT070 BKN080 73.4 73.4 100% 29.96 0.0
13 02:15 Calm 10.00 Overcast SCT046 BKN070 OVC080 73.4 73.4 100% 29.96 0.0
13 01:55 Calm 10.00 Overcast SCT018 BKN070 OVC080 73.4 71.6 94% 29.96 0.0
13 01:35 Calm 10.00 Mostly Cloudy SCT016 BKN070 BKN080 73.4 71.6 94% 29.96 0.0
13 01:15 Calm 10.00 Partly Cloudy SCT016 73.4 71.6 94% 29.96 0.0
13 00:55 SE 3 10.00 Fair CLR 75.2 71.6 89% 75 29.97 0.0
13 00:35 SE 5 10.00 Fair CLR 75.2 69.8 83% 75 29.97 0.0
13 00:15 SE 5 10.00 Fair CLR 77 71.6 83% 78 29.97 0.0
12 23:55 SE 6 10.00 Fair CLR 77 71.6 83% 78 29.97 0.0
12 23:35 SE 5 10.00 Fair CLR 77 71.6 83% 78 29.98 0.0
12 23:15 SE 5 10.00 Fair CLR 77 71.6 83% 78 29.97 0.0
12 22:55 S 6 10.00 Fair CLR 78.8 71.6 79% 82 29.97 0.0
12 22:35 SE 3 10.00 Partly Cloudy SCT050 78.8 69.8 74% 81 29.96 0.0
12 22:15 SE 3 10.00 Mostly Cloudy BKN050 78.8 69.8 74% 81 29.95 0.0
12 21:55 SE 5 10.00 Mostly Cloudy BKN050 78.8 69.8 74% 81 29.95 0.0
12 21:35 SE 3 10.00 Partly Cloudy SCT050 80.6 69.8 70% 84 29.95 0.0
12 21:15 Calm 10.00 Fair CLR 80.6 69.8 70% 84 29.94 0.0
12 20:55 E 5 10.00 Partly Cloudy SCT055 80.6 69.8 70% 84 29.94 0.0
12 20:35 E 5 10.00 Partly Cloudy SCT055 82.4 69.8 66% 86 29.94 0.0
12 20:15 SE 6 10.00 Fair CLR 82.4 69.8 66% 86 29.94 0.0
12 19:55 SE 7 10.00 Fair CLR 82.4 69.8 66% 86 29.93 0.0
12 19:35 E 6 10.00 Fair CLR 84.2 69.8 62% 88 29.93 0.0
12 19:15 E 5 10.00 Fair CLR 84.2 69.8 62% 88 29.93 0.0
12 18:55 E 7 10.00 Fair CLR 86 69.8 59% 91 29.93 0.0
12 18:35 E 8 10.00 Partly Cloudy SCT050 84.2 69.8 62% 88 29.94 0.0
12 18:15 E 10 10.00 Mostly Cloudy SCT041 SCT048 BKN050 84.2 69.8 62% 88 29.94 0.0
12 17:55 E 10 G 16 10.00 Mostly Cloudy SCT034 BKN043 BKN060 82.4 69.8 66% 86 29.94 0.0
12 17:35 E 10 10.00 Mostly Cloudy SCT036 BKN041 86 69.8 59% 91 29.94 0.0
12 17:15 E 8 10.00 Partly Cloudy SCT034 SCT046 86 69.8 59% 91 29.94 0.0
12 16:55 NE 9 10.00 Mostly Cloudy SCT046 BKN050 84.2 69.8 62% 88 29.95 0.0
12 16:35 NE 13 G 16 10.00 Overcast OVC046 84.2 69.8 62% 88 29.95 0.0
12 16:15 NE 13 G 16 10.00 Partly Cloudy SCT048 86 69.8 59% 91 29.95 0.0
12 15:55 E 9 10.00 Partly Cloudy SCT065 SCT080 86 71.6 62% 92 29.95 0.0
12 15:35 NE 12 G 17 10.00 Mostly Cloudy SCT050 BKN060 BKN085 87.8 68 52% 91 29.96 0.0
12 15:15 Calm 10.00 Mostly Cloudy SCT050 BKN060 BKN080 86 68 55% 89 29.96 0.0
12 14:55 NW 3 10.00 Overcast SCT043 BKN050 OVC080 86 68 55% 89 29.96 0.0
12 14:35 Calm 10.00 Partly Cloudy SCT043 SCT050 86 68 55% 89 29.97 0.0
12 14:15 Calm 10.00 Fair CLR 86 68 55% 89 29.98 0.0
12 13:55 E 3 10.00 Partly Cloudy SCT060 SCT080 86 68 55% 89 29.99 0.0
12 13:35 N 3 10.00 Mostly Cloudy BKN060 BKN080 84.2 69.8 62% 88 30 0.0
12 13:15 NE 3 10.00 Overcast OVC060 82.4 69.8 66% 86 30 0.0
12 12:55 NE 5 10.00 Mostly Cloudy BKN060 BKN100 82.4 69.8 66% 86 30.01 0.0
12 12:35 NE 6 10.00 Partly Cloudy SCT033 SCT070 SCT090 82.4 69.8 66% 86 30.01 0.0
12 12:15 NE 6 10.00 Mostly Cloudy SCT024 BKN033 BKN085 82.4 69.8 66% 86 30.01 0.0
12 11:55 NE 7 10.00 Overcast BKN026 OVC033 82.4 71.6 70% 87 30.01 0.0
12 11:35 E 5 10.00 Mostly Cloudy SCT025 BKN031 82.4 69.8 66% 86 30.01 0.0
12 11:15 Calm 10.00 Mostly Cloudy SCT020 SCT025 BKN070 80.6 71.6 74% 85 30.01 0.0
12 10:55 Calm 10.00 Partly Cloudy SCT020 SCT100 SCT120 78.8 73.4 84% 82 30.01 0.0
12 10:35 Calm 10.00 Mostly Cloudy BKN090 BKN110 77 77 100% 78 30.01 0.0
12 10:15 Calm 10.00 Mostly Cloudy SCT065 BKN090 75.2 75.2 100% 73 30.01 0.0
12 09:55 Calm 10.00 Overcast SCT023 BKN070 OVC080 73.4 73.4 100% 30.02 0.0
12 09:35 Calm 10.00 Overcast SCT011 BKN025 OVC075 73.4 73.4 100% 30.02 0.0
12 09:15 NE 3 10.00 Overcast BKN008 OVC017 73.4 73.4 100% 30.01 0.0
12 08:55 NE 3 10.00 Mostly Cloudy BKN008 BKN012 73.4 73.4 100% 30.01 0.0
12 08:35 Calm 10.00 Partly Cloudy SCT006 SCT095 73.4 73.4 100% 30 0.0
12 08:15 Calm 7.00 Mostly Cloudy BKN004 BKN085 71.6 71.6 100% 29.99 0.0
12 07:55 Calm 5.00 Overcast OVC004 69.8 69.8 100% 29.99 0.0
12 07:35 Calm 4.00 Overcast OVC004 69.8 69.8 100% 29.98 0.0
12 07:15 Calm 3.00 Overcast OVC004 69.8 69.8 100% 29.98 0.0
12 06:55 Calm 7.00 Overcast OVC004 69.8 69.8 100% 29.97 0.0
12 06:35 Calm 7.00 Overcast BKN004 BKN013 OVC050 69.8 69.8 100% 29.97 0.0
12 06:15 Calm 10.00 Overcast SCT004 SCT018 OVC050 69.8 69.8 100% 29.97 0.0
12 05:55 Calm 10.00 Mostly Cloudy SCT006 SCT015 BKN050 69.8 69.8 100% 29.97 0.0
12 05:35 Calm 10.00 Partly Cloudy SCT050 69.8 69.8 100% 29.96 0.0
12 05:15 Calm 10.00 Partly Cloudy SCT006 69.8 69.8 100% 29.97 0.0
12 04:55 Calm 10.00 Mostly Cloudy BKN006 69.8 69.8 100% 29.96 0.0
12 04:35 NE 3 10.00 Overcast OVC006 71.6 71.6 100% 29.96 0.0
12 04:15 Calm 10.00 Overcast OVC006 71.6 71.6 100% 29.96 0.0
12 03:55 Calm 10.00 Overcast OVC008 69.8 69.8 100% 29.96 0.0
12 03:35 Calm 10.00 Overcast OVC008 69.8 69.8 100% 29.95 0.0
12 03:15 Calm 10.00 Overcast BKN010 OVC090 69.8 69.8 100% 29.95 0.0
12 02:55 Calm 10.00 Overcast OVC010 69.8 69.8 100% 29.95 0.0
12 02:35 Calm 10.00 Overcast BKN012 OVC085 69.8 69.8 100% 29.95 0.0
12 02:15 Calm 10.00 Partly Cloudy SCT012 SCT085 69.8 69.8 100% 29.95 0.0
12 01:55 Calm 10.00 Partly Cloudy SCT014 69.8 69.8 100% 29.96 0.0
12 01:35 Calm 10.00 Partly Cloudy SCT015 SCT110 69.8 69.8 100% 29.95 0.0
12 01:15 NE 3 10.00 Partly Cloudy SCT110 69.8 69.8 100% 29.95 0.0
12 00:55 Calm 10.00 Partly Cloudy SCT090 71.6 71.6 100% 29.96 0.0
12 00:35 Calm 10.00 Partly Cloudy SCT090 SCT110 71.6 71.6 100% 29.96 0.0
12 00:15 Calm 10.00 Partly Cloudy SCT090 SCT120 71.6 71.6 100% 29.96 0.0
11 23:55 E 3 10.00 Partly Cloudy SCT100 71.6 71.6 100% 29.96 0.0
11 23:35 E 5 10.00 Partly Cloudy SCT100 71.6 71.6 100% 29.96 0.0
11 23:15 NE 7 10.00 Partly Cloudy SCT100 71.6 71.6 100% 29.95 0.0
11 22:55 E 6 10.00 Mostly Cloudy BKN100 71.6 71.6 100% 29.96 0.0
11 22:35 NE 5 10.00 Fair CLR 71.6 71.6 100% 29.94 0.0
11 22:15 Calm 10.00 Fair CLR 71.6 71.6 100% 29.93 0.0
11 21:55 N 3 10.00 Fair CLR 71.6 71.6 100% 29.92 0.0
11 21:35 N 5 10.00 Fair CLR 71.6 71.6 100% 29.91 0.0
11 21:15 Calm 10.00 Fair CLR 71.6 71.6 100% 29.9 0.0
11 20:35 Calm 10.00 Overcast SCT028 BKN075 OVC090 73.4 69.8 89% 29.9 0.0
11 20:15 N 3 10.00 Partly Cloudy SCT090 73.4 68 83% 29.91 0.0
11 19:55 NE 5 10.00 Fair CLR 73.4 68 83% 29.9 0.0
11 19:35 NE 6 10.00 Fair CLR 73.4 68 83% 29.88 0.0
11 19:15 E 5 10.00 Partly Cloudy SCT033 SCT050 SCT055 73.4 68 83% 29.88 0.0
11 18:55 NE 6 10.00 Mostly Cloudy SCT050 SCT065 BKN095 73.4 66.2 78% 29.89 0.0
11 18:35 N 6 10.00 Fair CLR 73.4 68 83% 29.9 0.0
11 18:15 Calm 10.00 Partly Cloudy SCT044 SCT050 73.4 69.8 89% 29.89 0.0
11 17:55 N 7 10.00 Mostly Cloudy SCT021 SCT042 BKN070 71.6 69.8 94% 29.89 0.0 0.01
11 17:35 N 7 G 17 10.00 Mostly Cloudy SCT022 BKN037 BKN065 73.4 69.8 89% 29.9 0.0 0.01
11 17:15 N 8 G 18 10.00 Overcast SCT031 BKN044 OVC110 75.2 68 78% 76 29.9 0.0
11 16:55 N 18 G 28 10.00 Mostly Cloudy SCT060 SCT070 BKN100 78.8 64.4 61% 81 29.9 0.0
11 16:35 N 18 G 29 10.00 Partly Cloudy SCT060 SCT070 82.4 64.4 55% 84 29.89 0.0
11 16:15 SE 5 10.00 Partly Cloudy SCT070 89.6 66.2 46% 92 29.87 0.0
11 15:55 E 3 10.00 Fair CLR 89.6 64.4 43% 91 29.87 0.0
11 15:35 S 8 10.00 Fair CLR 89.6 68 49% 93 29.87 0.0
11 15:15 S 8 10.00 Fair CLR 89.6 68 49% 93 29.88 0.0
11 14:55 E 3 10.00 Fair CLR 89.6 64.4 43% 91 29.88 0.0
11 14:35 S 5 10.00 Fair CLR 87.8 68 52% 91 29.89 0.0
11 14:15 Calm 10.00 Partly Cloudy SCT044 87.8 68 52% 91 29.9 0.0
11 13:55 SW 6 10.00 Partly Cloudy SCT042 87.8 68 52% 91 29.91 0.0
11 13:35 S 5 10.00 Partly Cloudy SCT040 87.8 68 52% 91 29.92 0.0
11 13:15 SE 9 10.00 Fair CLR 86 68 55% 89 29.92 0.0
11 12:55 SE 7 10.00 Fair CLR 86 68 55% 89 29.93 0.0
11 12:35 SE 8 10.00 Partly Cloudy SCT034 86 68 55% 89 29.94 0.0
11 12:15 S 7 10.00 Partly Cloudy SCT034 84.2 68 58% 87 29.94 0.0
11 11:35 SW 7 10.00 Mostly Cloudy BKN030 BKN036 82.4 69.8 66% 86 29.95 0.0
11 11:15 SW 10 10.00 Mostly Cloudy BKN028 BKN036 80.6 68 66% 83 29.95 0.0
11 10:55 S 5 10.00 Partly Cloudy SCT026 80.6 69.8 70% 84 29.96 0.0
11 10:35 SW 7 10.00 Mostly Cloudy BKN023 BKN028 80.6 69.8 70% 84 29.96 0.0
11 10:15 S 3 10.00 Mostly Cloudy SCT021 BKN028 78.8 69.8 74% 81 29.97 0.0
11 09:55 S 9 10.00 Partly Cloudy SCT017 78.8 73.4 84% 82 29.96 0.0
11 09:30 S 6 10.00 Partly Cloudy SCT012 SCT018 77 75.2 94% 78 29.96 0.0
11 09:15 SW 3 10.00 Mostly Cloudy BKN012 77 77 100% 78 29.96 0.0
11 08:55 SW 3 10.00 Mostly Cloudy BKN010 BKN013 75.2 75.2 100% 73 29.96 0.0
11 08:35 Calm 10.00 Mostly Cloudy BKN010 73.4 73.4 100% 29.95 0.0
11 08:15 Calm 10.00 Mostly Cloudy BKN008 71.6 71.6 100% 29.94 0.0
11 07:55 Calm 10.00 Overcast OVC008 69.8 69.8 100% 29.93 0.0
11 07:35 Calm 10.00 Overcast OVC008 69.8 69.8 100% 29.94 0.0
11 07:15 Calm 10.00 Mostly Cloudy BKN008 69.8 69.8 100% 29.93 0.0
11 06:55 Calm 10.00 Partly Cloudy SCT010 68 68 100% 29.92 0.0
11 06:35 Calm 10.00 Partly Cloudy SCT012 68 68 100% 29.91 0.0
11 06:15 Calm 10.00 Overcast OVC012 68 68 100% 29.91 0.0
11 05:55 Calm 10.00 Mostly Cloudy BKN014 68 68 100% 29.91 0.0
11 05:35 Calm 10.00 Partly Cloudy SCT014 68 68 100% 29.9 0.0
11 05:15 Calm 10.00 Partly Cloudy SCT033 68 68 100% 29.91 0.0
11 04:55 W 3 10.00 Fair CLR 68 68 100% 29.91 0.0
11 04:35 Calm 10.00 Fair CLR 68 68 100% 29.91 0.0
11 04:15 Calm 10.00 Fair CLR 69.8 69.8 100% 29.91 0.0
11 03:55 Calm 10.00 Fair CLR 68 68 100% 29.92 0.0
11 03:35 Calm 10.00 Fair CLR 69.8 69.8 100% 29.91 0.0
11 03:15 Calm 10.00 Fair CLR 69.8 69.8 100% 29.91 0.0
11 02:55 Calm 10.00 Fair CLR 69.8 69.8 100% 29.92 0.0
11 02:35 Calm 10.00 Fair CLR 69.8 69.8 100% 29.93 0.0
11 02:15 Calm 10.00 Fair CLR 69.8 69.8 100% 29.93 0.0
11 01:55 Calm 10.00 Fair CLR 69.8 69.8 100% 29.93 0.0
11 01:35 Calm 10.00 Fair CLR 69.8 69.8 100% 29.92 0.0
11 01:15 Calm 10.00 Fair CLR 71.6 71.6 100% 29.92 0.0
11 00:55 Calm 10.00 Fair CLR 71.6 71.6 100% 29.93 0.0
11 00:35 Calm 10.00 Fair CLR 71.6 69.8 94% 29.93 0.0
11 00:15 Calm 10.00 Fair CLR 73.4 69.8 89% 29.93 0.0
10 23:55 Calm 10.00 Fair CLR 73.4 69.8 89% 29.92 0.0
10 23:35 Calm 10.00 Fair CLR 73.4 68 83% 29.92 0.0
10 23:15 Calm 10.00 Fair CLR 73.4 68 83% 29.92 0.0
10 22:55 Calm 10.00 Fair CLR 77 66.2 69% 79 29.91 0.0
10 22:35 Calm 10.00 Fair CLR 78.8 66.2 65% 81 29.9 0.0
10 22:15 E 3 10.00 Fair CLR 78.8 66.2 65% 81 29.89 0.0
10 21:55 Calm 10.00 Fair CLR 80.6 64.4 58% 82 29.89 0.0
10 21:35 Calm 10.00 Fair CLR 80.6 64.4 58% 82 29.88 0.0
10 21:15 E 3 10.00 Fair CLR 80.6 66.2 62% 83 29.88 0.0
10 20:55 SE 3 10.00 Fair CLR 82.4 66.2 58% 85 29.86 0.0
10 20:35 E 5 10.00 Fair CLR 84.2 66.2 55% 87 29.85 0.0
10 20:15 E 6 10.00 Fair CLR 84.2 66.2 55% 87 29.84 0.0
10 19:55 E 7 10.00 Fair CLR 86 64.4 49% 87 29.84 0.0
10 19:35 E 6 10.00 Fair CLR 87.8 64.4 46% 89 29.84 0.0
10 19:15 NE 5 10.00 Fair CLR 87.8 60.8 40% 88 29.84 0.0
10 18:55 NE 6 10.00 Fair CLR 87.8 62.6 43% 88 29.84 0.0
10 18:35 Calm 10.00 Partly Cloudy SCT060 87.8 62.6 43% 88 29.83 0.0
10 18:15 NE 7 10.00 Partly Cloudy SCT060 89.6 62.6 41% 90 29.83 0.0
10 17:55 NE 3 10.00 Fair CLR 89.6 62.6 41% 90 29.83 0.0
10 17:35 SE 6 10.00 Partly Cloudy SCT060 89.6 62.6 41% 90 29.83 0.0
10 17:15 E 5 10.00 Partly Cloudy SCT060 89.6 62.6 41% 90 29.83 0.0
10 16:55 E 5 10.00 Partly Cloudy SCT060 87.8 62.6 43% 88 29.84 0.0
10 16:35 SE 6 10.00 Fair CLR 87.8 64.4 46% 89 29.84 0.0
10 16:15 Calm 10.00 Partly Cloudy SCT050 87.8 64.4 46% 89 29.85 0.0
10 15:55 E 3 10.00 Partly Cloudy SCT050 87.8 64.4 46% 89 29.87 0.0
10 15:35 E 6 10.00 Partly Cloudy SCT050 87.8 64.4 46% 89 29.87 0.0
10 15:15 E 6 10.00 Fair CLR 86 64.4 49% 87 29.88 0.0
Date Time (cdt) Wind (mph) Vis. (mi.) Weather Sky Cond. Air Dwpt Max. Min. Relative Humidity Wind Chill (°F) Heat Index (°F) altimeter (in) sea level (mb) 1 hr 3 hr 6 hr
6 hour
Temperature (ºF) Pressure Precipitation (in)